Погода в Искре

Россия / Псковская область     57°46′19″N   29°52′26″E
темп.,
°C
ветер,
м/с
пор.,
м/с
влажн.,
%
обл.,
%
осадки,
мм/ч
давл.,
гПа
погр.,
м
23 апреля, пт
пт2300:00+4ююз2988100 0.1 1008295
03:00+4юз3987100 0.1 1007467
06:00+3ююз3888100 0.0 1007581
09:00+4ююз477197 0.0 10081146
12:00+5ююз5870100 0.1 10081496
15:00+7ююз5860100 0.3 10081717
18:00+6юз57657 0.6 10081335
21:00+3ююз39755 0.6 1009353
24 апреля, сб
сб2400:00+1юз268993 0.0 1009217
03:00+2юз3688100 0.0 1008559
06:00+1з379099 0.1 1009532
09:00+2зюз4573100 0.2 1009915
12:00+4юз3661100 0.1 10081374
15:00+5зюз4672100 0.5 10081099
18:00+5з477379 0.6 10081063
21:00+1з388938 0.8 1008420
25 апреля, вс
вс2500:000зюз4109128 0.0 1008498
03:00−1юз399594 0.1 1008464
06:000юз2691100 0.1 1007346
09:00+2зюз2596100 0.4 1006472
12:00+2зюз3693100 0.5 1007508
15:00+6зюз466690 1.0 10061368
18:00+6зсз356245 0.4 10061310
21:00+1з26925 0.4 1007127
26 апреля, пн
пн2600:00−1зюз269747 0.0 1008144
03:000зюз3898100 0.0 1008274
06:00−1зюз3896100 0.0 1008384
09:00+1юз3680100 0.0 1008761
12:00+4зюз3564100 0.1 10081262
15:00+6зюз4559100 0.2 10071475
18:00+5зюз3564100 0.2 10071121
21:00+2юз2284100 0.3 100650
27 апреля, вт
вт2700:00+1зюз2494100 0.0 1006144
03:00+1юз3898100 0.2 1005386
06:00+1зюз2598100 1.2 1004301
09:00+2сз2499100 1.8 1005287
12:00+3сз2597100 0.3 1006475
15:00+3сз3593100 0.4 1007588
18:00+3зсз3693100 0.3 1007562
21:00+3зсз3698100 0.4 1008516